| time (UTC) | temp C | wind direction | speed KPH | gust KPH | rain 1hr cm | rain 24hr cm | rain mn cm | humidity % | barometer mb |
| 20260507103030 | 20 | 320 | 1.6 | 3.2 | 0.00 | 0.51 | 0.46 | 73 | 1013.3 |
| 20260507102026 | 20 | 234 | 1.6 | 6.4 | 0.00 | 0.51 | 0.46 | 72 | 1013.4 |
| 20260507101019 | 20 | 226 | 1.6 | 3.2 | 0.00 | 0.51 | 0.46 | 71 | 1013.4 |
| 20260507100033 | 20 | 226 | 1.6 | 6.4 | 0.00 | 0.51 | 0.46 | 72 | 1013.4 |
| 20260507095027 | 19 | 198 | 1.6 | 3.2 | 0.00 | 0.51 | 0.46 | 73 | 1013.3 |
| 20260507094022 | 19 | 203 | 1.6 | 3.2 | 0.00 | 0.51 | 0.46 | 73 | 1013.4 |
| 20260507093016 | 18 | 170 | 1.6 | 4.8 | 0.00 | 0.51 | 0.46 | 74 | 1013.4 |
| 20260507092032 | 18 | 190 | 1.6 | 4.8 | 0.00 | 0.53 | 0.46 | 74 | 1013.2 |
| 20260507091027 | 18 | 221 | 1.6 | 3.2 | 0.00 | 0.53 | 0.46 | 78 | 1013.2 |
| 20260507090020 | 17 | 194 | 1.6 | 3.2 | 0.00 | 0.53 | 0.46 | 79 | 1013.2 |
| 20260507085057 | 17 | 226 | 1.6 | 3.2 | 0.00 | 0.53 | 0.46 | 80 | 1013.2 |
| 20260507084030 | 17 | 182 | 1.6 | 3.2 | 0.00 | 0.53 | 0.46 | 79 | 1013.3 |
| 20260507083045 | 16 | 217 | 0.0 | 3.2 | 0.00 | 0.53 | 0.46 | 83 | 1013.4 |
| 20260507082018 | 15 | 262 | 1.6 | 3.2 | 0.00 | 0.53 | 0.46 | 85 | 1013.5 |
| 20260507081033 | 15 | 238 | 1.6 | 9.7 | 0.00 | 0.53 | 0.46 | 86 | 1013.6 |
| 20260507080027 | 15 | 319 | 0.0 | 1.6 | 0.00 | 0.53 | 0.46 | 86 | 1013.6 |
| 20260507075044 | 15 | 24 | 0.0 | 3.2 | 0.00 | 0.53 | 0.46 | 89 | 1013.5 |
| 20260507074017 | 13 | 192 | 0.0 | 1.6 | 0.00 | 0.53 | 0.46 | 95 | 1013.6 |
| 20260507073031 | 13 | 24 | 0.0 | 1.6 | 0.00 | 0.53 | 0.46 | 98 | 1013.6 |
| 20260507072027 | 12 | 355 | 1.6 | 3.2 | 0.00 | 0.53 | 0.46 | 99 | 1013.8 |
| 20260507071021 | 12 | 8 | 1.6 | 4.8 | 0.00 | 0.53 | 0.46 | 99 | 1013.8 |
| 20260507070035 | 12 | 317 | 0.0 | 1.6 | 0.00 | 0.53 | 0.46 | 99 | 1013.4 |
| 20260507065029 | 12 | 310 | 0.0 | 1.6 | 0.00 | 0.53 | 0.46 | 99 | 1013.3 |
| 20260507064024 | 12 | 192 | 0.0 | 1.6 | 0.00 | 0.53 | 0.46 | 99 | 1013.1 |
| 20260507063038 | 12 | 181 | 0.0 | 1.6 | 0.00 | 0.53 | 0.46 | 99 | 1013.1 |
| 20260507062034 | 12 | 212 | 0.0 | 1.6 | 0.00 | 0.53 | 0.46 | 99 | 1013.1 |
| 20260507061027 | 12 | 151 | 0.0 | 1.6 | 0.00 | 0.53 | 0.46 | 99 | 1013.1 |
| 20260507060021 | 12 | 0.0 | 0.0 | 0.00 | 0.56 | 0.46 | 99 | 1013.0 | |
| 20260507055035 | 12 | 0.0 | 0.0 | 0.00 | 0.58 | 0.46 | 99 | 1013.1 | |
| 20260507054030 | 12 | 0.0 | 0.0 | 0.00 | 0.58 | 0.46 | 99 | 1013.0 | |
| 20260507053024 | 12 | 0.0 | 0.0 | 0.00 | 0.58 | 0.46 | 99 | 1013.1 | |
| 20260507052020 | 12 | 0.0 | 0.0 | 0.00 | 0.61 | 0.46 | 99 | 1013.2 | |
| 20260507051054 | 12 | 0.0 | 0.0 | 0.00 | 0.61 | 0.46 | 99 | 1013.2 | |
| 20260507050028 | 11 | 7 | 0.0 | 1.6 | 0.00 | 0.61 | 0.46 | 99 | 1013.1 |
| 20260507045023 | 11 | 0 | 0.0 | 1.6 | 0.00 | 0.61 | 0.46 | 99 | 1013.0 |
| 20260507044018 | 11 | 20 | 0.0 | 3.2 | 0.00 | 0.61 | 0.46 | 99 | 1013.0 |
| 20260507043033 | 11 | 0.0 | 0.0 | 0.00 | 0.61 | 0.46 | 99 | 1012.9 | |
| 20260507042027 | 11 | 0.0 | 0.0 | 0.00 | 0.61 | 0.46 | 99 | 1013.0 | |
| 20260507041021 | 11 | 0.0 | 0.0 | 0.00 | 0.61 | 0.46 | 99 | 1013.0 | |
| 20260507040036 | 11 | 0.0 | 0.0 | 0.03 | 0.61 | 0.46 | 99 | 1013.0 | |
| 20260507035030 | 11 | 0.0 | 0.0 | 0.03 | 0.61 | 0.46 | 99 | 1012.8 | |
| 20260507034025 | 11 | 0.0 | 0.0 | 0.10 | 0.61 | 0.46 | 99 | 1012.8 | |
| 20260507033019 | 11 | 333 | 0.0 | 1.6 | 0.13 | 0.61 | 0.46 | 99 | 1012.7 |
| 20260507032054 | 11 | 0.0 | 0.0 | 0.15 | 0.61 | 0.46 | 99 | 1012.7 | |
| 20260507031027 | 11 | 0.0 | 0.0 | 0.18 | 0.61 | 0.46 | 99 | 1012.8 | |
| 20260507025017 | 11 | 0.0 | 0.0 | 0.15 | 0.58 | 0.43 | 99 | 1012.9 | |
| 20260507024030 | 11 | 0.0 | 0.0 | 0.10 | 0.51 | 0.36 | 99 | 1012.8 | |
| 20260507023026 | 11 | 0.0 | 0.0 | 0.10 | 0.48 | 0.33 | 99 | 1012.9 | |
| 20260507022021 | 11 | 0.0 | 0.0 | 0.15 | 0.46 | 0.30 | 99 | 1012.7 | |
| 20260507021034 | 11 | 0.0 | 0.0 | 0.18 | 0.43 | 0.28 | 99 | 1012.7 | |
| 20260507020029 | 11 | 0.0 | 0.0 | 0.20 | 0.46 | 0.28 | 98 | 1012.8 | |
| 20260507015025 | 11 | 0.0 | 0.0 | 0.20 | 0.46 | 0.28 | 98 | 1012.9 | |
| 20260507014018 | 11 | 0.0 | 0.0 | 0.18 | 0.43 | 0.25 | 98 | 1012.9 | |
| 20260507013033 | 11 | 176 | 0.0 | 1.6 | 0.18 | 0.41 | 0.23 | 98 | 1013.0 |
| 20260507012027 | 11 | 177 | 0.0 | 1.6 | 0.13 | 0.33 | 0.15 | 98 | 1012.9 |
| 20260507011024 | 11 | 0.0 | 0.0 | 0.08 | 0.28 | 0.10 | 97 | 1013.0 | |
| 20260507010018 | 11 | 194 | 0.0 | 1.6 | 0.08 | 0.25 | 0.08 | 97 | 1012.9 |
| 20260507005034 | 11 | 199 | 0.0 | 1.6 | 0.08 | 0.25 | 0.08 | 97 | 1013.1 |
| 20260507004028 | 11 | 185 | 0.0 | 1.6 | 0.08 | 0.25 | 0.08 | 96 | 1013.0 |
| 20260507003023 | 12 | 185 | 0.0 | 1.6 | 0.05 | 0.23 | 0.05 | 96 | 1013.2 |
| 20260507002018 | 12 | 182 | 1.6 | 1.6 | 0.03 | 0.20 | 0.03 | 95 | 1013.2 |
| 20260507001033 | 12 | 162 | 1.6 | 4.8 | 0.03 | 0.20 | 0.03 | 93 | 1013.1 |
| 20260507000027 | 12 | 180 | 0.0 | 1.6 | 0.00 | 0.18 | 0.00 | 92 | 1013.1 |
| 20260506235021 | 12 | 183 | 0.0 | 3.2 | 0.00 | 0.18 | 0.00 | 91 | 1013.1 |
| 20260506234036 | 12 | 177 | 1.6 | 3.2 | 0.00 | 0.18 | 0.00 | 90 | 1013.1 |
| 20260506233030 | 12 | 144 | 1.6 | 11.3 | 0.00 | 0.18 | 0.00 | 90 | 1013.0 |
| 20260506232047 | 12 | 170 | 1.6 | 3.2 | 0.00 | 0.18 | 0.00 | 90 | 1013.2 |
| 20260506231019 | 12 | 161 | 0.0 | 3.2 | 0.00 | 0.18 | 0.00 | 90 | 1013.2 |
| 20260506230034 | 12 | 182 | 1.6 | 3.2 | 0.00 | 0.18 | 0.00 | 90 | 1013.2 |
| 20260506225029 | 12 | 187 | 1.6 | 4.8 | 0.00 | 0.18 | 0.00 | 90 | 1013.3 |
| 20260506224023 | 12 | 169 | 1.6 | 3.2 | 0.00 | 0.18 | 0.00 | 91 | 1013.3 |
| 20260506223017 | 12 | 181 | 1.6 | 3.2 | 0.00 | 0.18 | 0.00 | 91 | 1013.4 |
| 20260506222032 | 12 | 176 | 1.6 | 3.2 | 0.00 | 0.18 | 0.00 | 91 | 1013.4 |
| 20260506221028 | 13 | 175 | 1.6 | 3.2 | 0.00 | 0.18 | 0.00 | 90 | 1013.4 |
| 20260506220021 | 13 | 168 | 1.6 | 4.8 | 0.00 | 0.18 | 0.18 | 88 | 1013.5 |
| 20260506215035 | 13 | 177 | 1.6 | 4.8 | 0.00 | 0.18 | 0.18 | 86 | 1013.4 |
| 20260506214030 | 13 | 164 | 1.6 | 4.8 | 0.00 | 0.18 | 0.18 | 86 | 1013.4 |
| 20260506213024 | 13 | 192 | 1.6 | 3.2 | 0.00 | 0.18 | 0.18 | 87 | 1013.3 |
| 20260506212038 | 13 | 166 | 1.6 | 3.2 | 0.00 | 0.18 | 0.18 | 91 | 1013.2 |
| 20260506211033 | 13 | 181 | 0.0 | 1.6 | 0.00 | 0.18 | 0.18 | 93 | 1013.4 |
| 20260506210027 | 13 | 175 | 0.0 | 1.6 | 0.00 | 0.18 | 0.18 | 93 | 1013.4 |
| 20260506205024 | 13 | 166 | 0.0 | 1.6 | 0.00 | 0.18 | 0.18 | 94 | 1013.5 |
| 20260506204016 | 13 | 235 | 0.0 | 1.6 | 0.00 | 0.18 | 0.18 | 93 | 1013.7 |
| 20260506203031 | 13 | 157 | 0.0 | 1.6 | 0.00 | 0.18 | 0.18 | 93 | 1013.7 |
| 20260506202024 | 13 | 177 | 0.0 | 1.6 | 0.00 | 0.18 | 0.18 | 94 | 1013.8 |
| 20260506201020 | 13 | 182 | 0.0 | 1.6 | 0.00 | 0.18 | 0.18 | 93 | 1013.7 |
| 20260506200035 | 13 | 147 | 0.0 | 1.6 | 0.00 | 0.18 | 0.18 | 93 | 1013.7 |
| 20260506195030 | 13 | 150 | 0.0 | 1.6 | 0.00 | 0.18 | 0.18 | 93 | 1013.8 |
| 20260506194027 | 13 | 0.0 | 0.0 | 0.00 | 0.18 | 0.18 | 93 | 1013.7 | |
| 20260506193020 | 13 | 347 | 0.0 | 1.6 | 0.00 | 0.18 | 0.18 | 92 | 1013.6 |
| 20260506192036 | 13 | 49 | 0.0 | 1.6 | 0.00 | 0.18 | 0.18 | 92 | 1013.6 |
| 20260506191030 | 13 | 37 | 0.0 | 3.2 | 0.00 | 0.18 | 0.18 | 92 | 1013.2 |
| 20260506190105 | 13 | 355 | 0.0 | 1.6 | 0.00 | 0.18 | 0.18 | 92 | 1013.2 |
| 20260506185020 | 13 | 350 | 0.0 | 3.2 | 0.00 | 0.18 | 0.18 | 92 | 1013.1 |
| 20260506184035 | 13 | 314 | 0.0 | 3.2 | 0.05 | 0.18 | 0.18 | 91 | 1013.0 |
| 20260506183029 | 13 | 357 | 0.0 | 1.6 | 0.05 | 0.18 | 0.18 | 91 | 1013.0 |
| 20260506182023 | 13 | 359 | 0.0 | 3.2 | 0.05 | 0.18 | 0.18 | 90 | 1012.9 |
| 20260506181018 | 13 | 243 | 0.0 | 1.6 | 0.05 | 0.18 | 0.18 | 90 | 1013.0 |
| 20260506180032 | 13 | 4 | 1.6 | 1.6 | 0.05 | 0.18 | 0.18 | 88 | 1013.0 |
| 20260506175109 | 14 | 95 | 1.6 | 4.8 | 0.05 | 0.18 | 0.18 | 83 | 1012.9 |
| 20260506174021 | 15 | 113 | 1.6 | 3.2 | 0.00 | 0.13 | 0.13 | 80 | 1013.0 |
| 20260506173036 | 15 | 289 | 0.0 | 3.2 | 0.00 | 0.13 | 0.13 | 80 | 1012.9 |
| 20260506172030 | 15 | 117 | 1.6 | 4.8 | 0.00 | 0.13 | 0.13 | 79 | 1012.7 |
| 20260506171024 | 15 | 102 | 0.0 | 1.6 | 0.00 | 0.13 | 0.13 | 79 | 1012.7 |
| 20260506170039 | 15 | 154 | 0.0 | 1.6 | 0.00 | 0.13 | 0.13 | 77 | 1012.6 |
| 20260506165034 | 15 | 194 | 1.6 | 6.4 | 0.00 | 0.13 | 0.13 | 76 | 1012.8 |
| 20260506164028 | 15 | 173 | 0.0 | 1.6 | 0.00 | 0.13 | 0.13 | 75 | 1012.9 |
| 20260506163024 | 15 | 223 | 0.0 | 1.6 | 0.00 | 0.13 | 0.13 | 75 | 1013.0 |
| 20260506162018 | 15 | 197 | 0.0 | 1.6 | 0.00 | 0.13 | 0.13 | 77 | 1013.0 |
| 20260506161033 | 15 | 141 | 0.0 | 1.6 | 0.00 | 0.13 | 0.13 | 76 | 1012.8 |
| 20260506160027 | 15 | 217 | 0.0 | 1.6 | 0.00 | 0.13 | 0.13 | 76 | 1012.9 |
| 20260506155022 | 16 | 93 | 0.0 | 3.2 | 0.00 | 0.13 | 0.13 | 75 | 1013.1 |
| 20260506154016 | 16 | 150 | 1.6 | 4.8 | 0.00 | 0.13 | 0.13 | 73 | 1013.0 |
| 20260506153032 | 16 | 189 | 0.0 | 3.2 | 0.00 | 0.13 | 0.13 | 75 | 1013.1 |
| 20260506152027 | 16 | 138 | 1.6 | 4.8 | 0.00 | 0.13 | 0.13 | 74 | 1013.0 |
| 20260506151023 | 16 | 144 | 1.6 | 3.2 | 0.00 | 0.13 | 0.13 | 74 | 1013.1 |
| 20260506150017 | 16 | 106 | 0.0 | 4.8 | 0.00 | 0.13 | 0.13 | 73 | 1013.1 |
| 20260506145031 | 16 | 141 | 1.6 | 4.8 | 0.00 | 0.13 | 0.13 | 74 | 1013.1 |
| 20260506144026 | 16 | 193 | 1.6 | 4.8 | 0.00 | 0.13 | 0.13 | 74 | 1013.1 |
| 20260506143021 | 16 | 153 | 1.6 | 3.2 | 0.00 | 0.13 | 0.13 | 69 | 1013.0 |
| 20260506142035 | 17 | 208 | 1.6 | 6.4 | 0.00 | 0.13 | 0.13 | 67 | 1012.9 |
| 20260506141030 | 17 | 188 | 3.2 | 9.7 | 0.00 | 0.13 | 0.13 | 66 | 1013.1 |
| 20260506140024 | 17 | 173 | 3.2 | 11.3 | 0.00 | 0.13 | 0.13 | 65 | 1013.0 |
| 20260506135039 | 17 | 160 | 1.6 | 6.4 | 0.00 | 0.13 | 0.13 | 64 | 1013.0 |
| 20260506134034 | 17 | 220 | 3.2 | 11.3 | 0.00 | 0.13 | 0.13 | 64 | 1013.0 |
| 20260506133028 | 17 | 191 | 3.2 | 9.7 | 0.00 | 0.13 | 0.13 | 64 | 1013.1 |
| 20260506132022 | 18 | 178 | 3.2 | 9.7 | 0.00 | 0.13 | 0.13 | 64 | 1013.1 |
| 20260506131019 | 18 | 170 | 3.2 | 6.4 | 0.00 | 0.13 | 0.13 | 63 | 1013.0 |
| 20260506130033 | 18 | 148 | 1.6 | 4.8 | 0.00 | 0.13 | 0.13 | 63 | 1013.1 |
| 20260506125028 | 18 | 136 | 1.6 | 6.4 | 0.00 | 0.13 | 0.13 | 62 | 1013.1 |
| 20260506124022 | 18 | 172 | 3.2 | 9.7 | 0.00 | 0.13 | 0.13 | 60 | 1013.2 |
| 20260506123017 | 18 | 182 | 3.2 | 11.3 | 0.00 | 0.13 | 0.13 | 62 | 1013.4 |
| 20260506122032 | 18 | 171 | 4.8 | 11.3 | 0.00 | 0.13 | 0.13 | 60 | 1013.2 |
| 20260506121027 | 18 | 203 | 3.2 | 6.4 | 0.00 | 0.13 | 0.13 | 60 | 1013.2 |
| 20260506120022 | 18 | 182 | 4.8 | 12.9 | 0.00 | 0.13 | 0.13 | 64 | 1013.2 |
| 20260506115035 | 19 | 191 | 1.6 | 6.4 | 0.00 | 0.13 | 0.13 | 70 | 1013.2 |
| 20260506114032 | 20 | 196 | 1.6 | 6.4 | 0.00 | 0.13 | 0.13 | 68 | 1013.3 |
| 20260506113046 | 19 | 207 | 1.6 | 4.8 | 0.00 | 0.13 | 0.13 | 71 | 1013.1 |
| 20260506112020 | 19 | 147 | 1.6 | 6.4 | 0.00 | 0.13 | 0.13 | 73 | 1013.1 |
| 20260506111034 | 18 | 182 | 1.6 | 6.4 | 0.00 | 0.13 | 0.13 | 72 | 1013.2 |
| 20260506110029 | 18 | 192 | 1.6 | 9.7 | 0.00 | 0.13 | 0.13 | 77 | 1013.4 |
| 20260506105024 | 17 | 139 | 1.6 | 4.8 | 0.00 | 0.13 | 0.13 | 79 | 1013.5 |
| 20260506104018 | 17 | 181 | 1.6 | 6.4 | 0.00 | 0.13 | 0.13 | 81 | 1013.5 |